Regional Weather Roundup
Issued by NWS Sterling, VA

Home | Current Version | Previous Version | Graphics & Text | Print | Product List | Glossary On
Versions: 1 2 3 4 5 6 7 8 9 10 11 12 13 14 15 16 17 18 19 20 21 22 23 24 25 26 27 28 29 30 31 32 33 34 35 36 37 38 39 40 41 42 43 44 45 46 47 48 49 50
000
ASUS41 KLWX 231210
RWRLWX

REGIONAL WEATHER ROUNDUP
NATIONAL WEATHER SERVICE BALTIMORE MD/WASHINGTON DC
800 AM EDT SAT AUG 23 2014

Note: "FAIR" indicates few or no clouds below 12,000 feet
with no significant weather and/or obstructions to visibility.
 TC=TEMPERATURE CELSIUS

 * =Non NWS site. Station does not report precipitation (e.g. rain,
    snow, etc.), thunder, or fog.

DCZ001-MDZ009-015-VAZ040>042-051-053>054-231300-
WASHINGTON METRO
  /KDAA//-FT BELVOIR

CITY           SKY/WX    TMP DP  RH WIND       PRES   REMARKS
WASHINGTON NAT CLOUDY    73  64  73 NE6       30.03R
DULLES         CLOUDY    68  66  93 E7        30.02R
ANDREWS AFB    MOSUNNY   70  66  88 E8        30.02R
QUANTICO       CLOUDY    72  67  84 E6        30.02R
COLLEGE PARK*  CLOUDY    70  66  88 E3        30.02S
LEESBURG*      CLOUDY    68  68 100 E3        30.03S
GAITHERSBURG*  PTSUNNY   66  64  94 E3        30.07R

$$

MDZ006>007-011-014-231300-
BALTIMORE METRO

CITY           SKY/WX    TMP DP  RH WIND       PRES   REMARKS
BWI AIRPORT    CLOUDY    70  64  81 E9        30.03R
MD SCIENCE CTR   N/A     71  65  81 MISG      30.04R
MARTIN STATE   PTSUNNY   72  66  83 E5        30.05R
ANNAPOLIS      PTSUNNY   71  66  84 E6        30.02R
FORT MEADE*    CLOUDY    68  63  83 E5        30.05R

$$

MDZ012-015-019>023-231300-
MARYLAND EASTERN SHORE

CITY           SKY/WX    TMP DP  RH WIND       PRES   REMARKS
OCEAN CITY     MOSUNNY   74  66  76 E9        30.00S
SALISBURY      SUNNY     71  65  81 NE5       30.01R
BAY BRIDGE AP*   N/A     68  64  88 E8        30.02S
CAMBRIDGE*     SUNNY     72  68  88 E6        30.00S
EASTON*        MOSUNNY   68  68 100 E5        30.05R

$$

MDZ017>025-231300-
SOUTHERN MARYLAND

CITY           SKY/WX    TMP DP  RH WIND       PRES   REMARKS
PATUXENT RIVER PTSUNNY   72  65  78 E9        30.01R
ST INIGOES     CLOUDY    73  65  75 NE8       30.00R
LEONARDTOWN*   CLOUDY    70  63  78 E3        30.03R

$$

MDZ003>005-231300-
NORTH CENTRAL MARYLAND

CITY           SKY/WX    TMP DP  RH WIND       PRES   REMARKS
FREDERICK*     HVY RAIN N/A N/A N/A CALM      30.06R
HAGERSTOWN APT CLOUDY    67  65  93 E7        30.03R
WESTMINSTER*   CLOUDY    66  64  94 SE7       30.05R

$$

MDZ501>502-231300-
WESTERN MARYLAND

CITY           SKY/WX    TMP DP  RH WIND       PRES   REMARKS
OAKLAND*       CLOUDY    64 N/A N/A CALM      30.09R FOG
CUMBERLAND*    CLOUDY    72  72 100 CALM      30.04S

$$

VAZ025>031-231300-
SHENANDOAH VALLEY

CITY           SKY/WX    TMP DP  RH WIND       PRES   REMARKS
WINCHESTER*    CLOUDY    70  68  94 SE7       30.01R
STAUNTON*      CLOUDY    71  68  91 CALM      30.04S

$$

WVZ021-048>050-054>055-231300-
EASTERN WEST VIRGINIA PANHANDLE

CITY           SKY/WX    TMP DP  RH WIND       PRES   REMARKS
MARTINSBURG    CLOUDY    70  65  84 SE6       30.02R
PETERSBURG*    NOT AVBL

$$

VAZ036>039-050-231300-
CENTRAL FOOTHILLS

CITY           SKY/WX    TMP DP  RH WIND       PRES   REMARKS
CHARLOTTESVILL CLOUDY    71  69  93 CALM      30.01R FOG
ORANGE*        DRIZZLE   70  68  94 CALM      30.03R

$$

VAZ055>057-231300-
NORTH AND CENTRAL PIEDMONT

CITY           SKY/WX    TMP DP  RH WIND       PRES   REMARKS
FREDERICKSBRG* PTSUNNY   71  71 100 CALM      30.00R
STAFFORD*      CLOUDY    71  71 100 E6        30.05R

$$

NCZ024-NYZ072-PAZ021-071-VAZ022-071-231300-
OTHER REGIONAL OBSERVATIONS

CITY           SKY/WX    TMP DP  RH WIND       PRES   REMARKS
NEW YORK CITY  CLOUDY    69  59  70 NE10      30.11R
PHILADELPHIA   PTSUNNY   69  62  78 NE8       30.05R
PITTSBURGH     FOG       69  68  96 NW5       30.02R VSB 1/4
ROANOKE        CLOUDY    73  69  87 NE3       30.03R
RICHMOND       LGT RAIN  72  70  93 NE8       29.99R
RALEIGH        PTSUNNY   76  71  85 VRB6      29.96R

$$

ANZ530>537-231300-
MARINE OBSERVATIONS

STATION/POSITION TIME  TEMP    WIND        PRES
                       AIR SEA DIR/SP/G
                 (UTC) (F)     (DEG/KT/KT) (MB)
THOMAS PT LIGHT  1200   69 78   80/ 13/ 14 1016.8R
BALT KEY BRIDGE  1200   70      60/  9/ 11 1016.6R
COVE POINT       1200   71     100/ 11/ 13 1016.1R
LEWISETTA        1200   74 78   90/ 10/ 11 1015.6R
SOLOMONS ISLAND  1200      80                N/A
PINEY POINT      1200           30/  4/  5   N/A

$$



USA.gov is the U.S. government's official web portal to all federal, state and local government web resources and services.